北斗 4 (BEIDOU 4)

导读

BEIDOU-2 G3 是中国北斗二代卫星导航系统中的地球静止轨道(GEO)卫星之一,主要用于提供定位、导航和授时服务。该卫星于2012年发射,增强了北斗系统在亚太地区的覆盖与精度。G3卫星采用东方红三号平台,具备高稳定性和抗干扰能力,支持多频段信号传输,提升了系统的可靠性和兼容性。作为北斗系统的重要组成部分,BEIDOU-2 G3 在交通运输、通信、测绘等领域发挥着关键作用,推动了中国自主卫星导航技术的发展。

基本信息
目录编号:
36590
目录名称:
BEIDOU 4
国际标识:
2010-024A
轨道中心:
EARTH
卫星名称:
北斗 4
卫星全名:
北斗 4 (BEIDOU 4)
卫星状态:
在轨 (已飞行5863 天)
发射日期:
2010-06-02 UTC
国别 :
中国 (CN)
星等 :
--
轨道信息
数据来源 国际轨道数据 AOE轨道数据
星历时间 2026-06-21T12:15:39+0800
13小时前
查看轨道信息
2026-06-21T05:00:00+0800
21小时前
查看轨道信息
半长轴 42165.009km 42164.953km
偏心率 0.0007877 0.0007875
轨道倾角 4.526° 4.525°
近地点辐角 352.265° 352.770°
升交点赤经 61.509° 61.506°
平近点角 359.204° 249.493°
近地点 35753.658km 35753.611km
远地点 35820.086km 35820.021km
周期 1436.111分钟 1436.108分钟
每日圈数 1.002708 1.00271
详细信息
卫星平台:
东方红三号B
平衡模式:
三轴稳定
制造商(研发单位):
中国空间技术研究院
制造商所在国:
中国
使用方式:
暂无
卫星简介
北斗卫星导航系统是中国着眼于国家安全和经济社会发展需要,自主建设运行的全球卫星导航系统,是为全球用户提供全天候、全天时、高精度的定位、导航和授时服务的国家重要时空基础设施。该卫星仍在工作。
2D轨道图
3D轨道图
轨道高度分析图
轨道倾角分析图
轨道综合分析图
查看轨道综合分析图